When you browse on this site, cookies collect data to enhance your experience and personalize the content and advertising you see.
Visit our Privacy Policy to learn more. By continuing to use the site, you agree to this use of cookies and data.
  • Em Portugal
  • Lista de países
  • Para 7 dias
  • Temperatura da água
  • Mapas de satélite
  • Mapa do tempo
  • Widgets de tempo
  • user-avatar
    Iniciar Sessão

    Previsão horária em Dragunsk

    Hoje, 18 Abril, Quinta-feira

    Tempo Temperatura Precipitação Vento Pressão Humidade
    00:00 +7°C° 0 mm 1 m/s 758 mmHg 75%
    01:00 +6°C° 0 mm 1 m/s 758 mmHg 76%
    02:00 +6°C° 0 mm 1 m/s 758 mmHg 76%
    03:00 +5°C° 0 mm 1 m/s 758 mmHg 76%
    04:00 +5°C° 0 mm 1 m/s 758 mmHg 77%
    05:00 +5°C° 0 mm 1 m/s 758 mmHg 78%
    06:00 +7°C° 0 mm 1 m/s 758 mmHg 72%
    07:00 +8°C° 0 mm 1 m/s 758 mmHg 67%
    08:00 +9°C° 0 mm 2 m/s 758 mmHg 62%
    09:00 +12°C° 0 mm 2 m/s 758 mmHg 56%
    10:00 +12°C° 0 mm 3 m/s 757 mmHg 49%
    11:00 +13°C° 0 mm 3 m/s 757 mmHg 43%
    12:00 +14°C° 0 mm 4 m/s 757 mmHg 42%
    13:00 +15°C° 0 mm 4 m/s 756 mmHg 41%
    14:00 +15°C° 0 mm 5 m/s 756 mmHg 39%
    15:00 +15°C° 0 mm 5 m/s 755 mmHg 40%
    16:00 +15°C° 0 mm 5 m/s 755 mmHg 41%
    17:00 +14°C° 0 mm 5 m/s 755 mmHg 42%
    18:00 +13°C° 0 mm 5 m/s 755 mmHg 47%
    19:00 +10°C° 0 mm 5 m/s 755 mmHg 52%
    20:00 +8°C° 0 mm 5 m/s 755 mmHg 57%
    21:00 +7°C° 0 mm 5 m/s 756 mmHg 59%
    22:00 +6°C° 0 mm 5 m/s 756 mmHg 61%
    23:00 +5°C° 0 mm 4 m/s 756 mmHg 62%

    Amanhã, 19 Abril, Sexta-feira

    Tempo Temperatura Precipitação Vento Pressão Humidade
    00:00 +5°C° 0 mm 4 m/s 756 mmHg 64%
    01:00 +5°C° 0 mm 4 m/s 757 mmHg 66%
    02:00 +4°C° 0 mm 4 m/s 757 mmHg 68%
    03:00 +4°C° 0 mm 4 m/s 757 mmHg 70%
    04:00 +3°C° 0 mm 4 m/s 757 mmHg 73%
    05:00 +3°C° 0 mm 4 m/s 757 mmHg 75%
    06:00 +3°C° 0 mm 5 m/s 757 mmHg 71%
    07:00 +5°C° 0 mm 5 m/s 758 mmHg 66%
    08:00 +7°C° 0 mm 5 m/s 758 mmHg 61%
    09:00 +8°C° 0 mm 5 m/s 758 mmHg 55%
    10:00 +9°C° 0 mm 5 m/s 758 mmHg 50%
    11:00 +12°C° 0 mm 5 m/s 758 mmHg 45%
    12:00 +12°C° 0 mm 5 m/s 758 mmHg 43%
    13:00 +12°C° 0 mm 5 m/s 758 mmHg 42%
    14:00 +13°C° 0 mm 4 m/s 758 mmHg 40%
    15:00 +13°C° 0 mm 4 m/s 758 mmHg 41%
    16:00 +12°C° 0 mm 4 m/s 758 mmHg 41%
    17:00 +12°C° 0 mm 3 m/s 758 mmHg 42%
    18:00 +11°C° 0 mm 3 m/s 758 mmHg 45%
    19:00 +9°C° 0 mm 2 m/s 758 mmHg 48%
    20:00 +9°C° 0 mm 1 m/s 758 mmHg 52%
    21:00 +9°C° 0 mm 1 m/s 758 mmHg 53%
    22:00 +7°C° 0 mm 0 m/s 758 mmHg 55%
    23:00 +6°C° 0 mm 0 m/s 758 mmHg 57%

    Depois de amanhã, 20 Abril, Sábado

    Tempo Temperatura Precipitação Vento Pressão Humidade
    00:00 +6°C° 0 mm 0 m/s 758 mmHg 58%
    01:00 +6°C° 0 mm 1 m/s 757 mmHg 59%
    02:00 +6°C° 0 mm 1 m/s 757 mmHg 60%
    03:00 +6°C° 0 mm 1 m/s 757 mmHg 61%
    04:00 +6°C° 0 mm 1 m/s 757 mmHg 62%
    05:00 +5°C° 0 mm 1 m/s 757 mmHg 63%
    06:00 +6°C° 0 mm 2 m/s 757 mmHg 60%
    07:00 +8°C° 0 mm 2 m/s 757 mmHg 56%
    08:00 +9°C° 0 mm 2 m/s 756 mmHg 53%
    09:00 +10°C° 0 mm 2 m/s 756 mmHg 50%
    10:00 +13°C° 0 mm 2 m/s 756 mmHg 47%
    11:00 +13°C° 0 mm 3 m/s 756 mmHg 44%
    12:00 +13°C° 0 mm 3 m/s 756 mmHg 45%
    13:00 +13°C° 0 mm 3 m/s 755 mmHg 45%
    14:00 +13°C° 0 mm 3 m/s 755 mmHg 46%
    15:00 +13°C° 0 mm 3 m/s 755 mmHg 48%
    16:00 +13°C° 0 mm 3 m/s 754 mmHg 50%
    17:00 +13°C° 0 mm 2 m/s 754 mmHg 52%
    18:00 +12°C° 0 mm 2 m/s 754 mmHg 58%
    19:00 +11°C° 0 mm 1 m/s 754 mmHg 64%
    20:00 +10°C° 0 mm 1 m/s 754 mmHg 70%
    21:00 +10°C° 0 mm 1 m/s 754 mmHg 73%
    22:00 +9°C° 0 mm 1 m/s 754 mmHg 76%
    23:00 +9°C° 0 mm 1 m/s 754 mmHg 79%

    21 Abril, Domingo

    Tempo Temperatura Precipitação Vento Pressão Humidade
    00:00 +8°C° 0 mm 1 m/s 754 mmHg 83%
    01:00 +8°C° 0 mm 1 m/s 754 mmHg 86%
    02:00 +6°C° 0 mm 2 m/s 754 mmHg 89%
    03:00 +6°C° 0 mm 2 m/s 754 mmHg 90%
    04:00 +6°C° 0 mm 2 m/s 753 mmHg 91%
    05:00 +5°C° 0 mm 2 m/s 753 mmHg 92%
    06:00 +7°C° 0 mm 2 m/s 754 mmHg 86%
    07:00 +8°C° 0 mm 3 m/s 754 mmHg 81%
    08:00 +9°C° 0 mm 3 m/s 754 mmHg 75%
    09:00 +10°C° 0 mm 4 m/s 754 mmHg 69%
    10:00 +11°C° 0 mm 4 m/s 754 mmHg 63%
    11:00 +12°C° 0 mm 5 m/s 754 mmHg 58%
    12:00 +12°C° 0 mm 5 m/s 754 mmHg 53%
    13:00 +13°C° 0 mm 5 m/s 754 mmHg 48%
    14:00 +14°C° 0 mm 5 m/s 754 mmHg 43%
    15:00 +14°C° 0 mm 5 m/s 754 mmHg 45%
    16:00 +13°C° 0 mm 5 m/s 754 mmHg 46%
    17:00 +13°C° 0 mm 5 m/s 754 mmHg 47%
    18:00 +11°C° 0 mm 4 m/s 754 mmHg 52%
    19:00 +10°C° 0 mm 4 m/s 755 mmHg 56%
    20:00 +8°C° 0 mm 4 m/s 755 mmHg 61%
    21:00 +8°C° 0 mm 3 m/s 755 mmHg 62%
    22:00 +8°C° 0 mm 3 m/s 756 mmHg 63%
    23:00 +7°C° 0 mm 3 m/s 756 mmHg 64%

    22 Abril, Segunda-feira

    Tempo Temperatura Precipitação Vento Pressão Humidade
    00:00 +7°C° 0 mm 3 m/s 756 mmHg 64%
    01:00 +5°C° 0 mm 3 m/s 756 mmHg 65%
    02:00 +5°C° 0 mm 3 m/s 757 mmHg 66%
    03:00 +5°C° 0 mm 3 m/s 757 mmHg 65%
    04:00 +7°C° 0 mm 3 m/s 757 mmHg 65%
    05:00 +7°C° 0 mm 3 m/s 757 mmHg 65%
    06:00 +8°C° 0 mm 3 m/s 758 mmHg 61%
    07:00 +9°C° 0 mm 3 m/s 758 mmHg 57%
    08:00 +10°C° 0 mm 3 m/s 758 mmHg 54%
    09:00 +11°C° 0 mm 4 m/s 758 mmHg 49%
    10:00 +12°C° 0 mm 4 m/s 758 mmHg 44%
    11:00 +13°C° 0 mm 4 m/s 759 mmHg 39%
    12:00 +13°C° 0 mm 4 m/s 759 mmHg 39%
    13:00 +13°C° 0 mm 3 m/s 759 mmHg 39%
    14:00 +14°C° 0 mm 3 m/s 759 mmHg 39%
    15:00 +14°C° 0 mm 3 m/s 759 mmHg 39%
    16:00 +13°C° 0 mm 3 m/s 759 mmHg 40%
    17:00 +13°C° 0 mm 3 m/s 758 mmHg 40%
    18:00 +13°C° 0 mm 2 m/s 759 mmHg 46%
    19:00 +10°C° 0 mm 2 m/s 759 mmHg 51%
    20:00 +9°C° 0 mm 2 m/s 759 mmHg 56%
    21:00 +8°C° 0 mm 2 m/s 760 mmHg 58%
    22:00 +8°C° 0 mm 2 m/s 760 mmHg 59%
    23:00 +7°C° 0 mm 2 m/s 760 mmHg 61%

    23 Abril, Terça-feira

    Tempo Temperatura Precipitação Vento Pressão Humidade
    00:00 +7°C° 0 mm 2 m/s 760 mmHg 62%
    01:00 +6°C° 0 mm 2 m/s 761 mmHg 64%
    02:00 +6°C° 0 mm 2 m/s 761 mmHg 65%
    03:00 +6°C° 0 mm 2 m/s 761 mmHg 66%
    04:00 +5°C° 0 mm 2 m/s 761 mmHg 67%
    05:00 +5°C° 0 mm 2 m/s 761 mmHg 68%
    06:00 +7°C° 0 mm 2 m/s 761 mmHg 63%
    07:00 +9°C° 0 mm 2 m/s 762 mmHg 57%
    08:00 +12°C° 0 mm 2 m/s 762 mmHg 52%
    09:00 +13°C° 0 mm 2 m/s 762 mmHg 46%
    10:00 +14°C° 0 mm 3 m/s 762 mmHg 41%
    11:00 +16°C° 0 mm 3 m/s 762 mmHg 36%
    12:00 +16°C° 0 mm 3 m/s 762 mmHg 36%
    13:00 +16°C° 0 mm 2 m/s 761 mmHg 36%
    14:00 +16°C° 0 mm 2 m/s 761 mmHg 37%
    15:00 +16°C° 0 mm 2 m/s 761 mmHg 38%
    16:00 +16°C° 0 mm 2 m/s 760 mmHg 39%
    17:00 +16°C° 0 mm 3 m/s 760 mmHg 40%
    18:00 +14°C° 0 mm 2 m/s 760 mmHg 45%
    19:00 +12°C° 0 mm 2 m/s 760 mmHg 51%
    20:00 +9°C° 0 mm 2 m/s 760 mmHg 56%
    21:00 +9°C° 0 mm 2 m/s 760 mmHg 57%
    22:00 +8°C° 0 mm 2 m/s 760 mmHg 59%
    23:00 +8°C° 0 mm 2 m/s 761 mmHg 60%
    Mostrar mais